Regional Weather Roundup
Issued by NWS

Home | Current Version | Previous Version | Text Only | Print | Product List | Glossary Off
Versions: 1 2 3 4 5 6 7 8 9 10 11 12 13 14 15 16 17 18 19 20 21 22 23 24 25 26 27 28 29 30 31 32 33 34 35 36 37 38 39 40 41 42 43 44 45 46 47 48 49 50

120
ASUS43 KBIS 220202
RWRND

NORTH DAKOTA REGIONAL WEATHER ROUNDUP
NATIONAL WEATHER SERVICE BISMARCK ND
800 PM CST TUE FEB 21 2017

NOTE: "FAIR" INDICATES FEW OR NO CLOUDS BELOW 12,000 FEET WITH NO
SIGNIFICANT WEATHER AND/OR OBSTRUCTIONS TO VISIBILITY.


NDZ001>003-009>011-017-220300-
NORTHWEST NORTH DAKOTA

CITY           SKY/WX    TMP DP  RH WIND       PRES   REMARKS
WILLISTON      CLOUDY    39  32  76 N9        29.68S
MINOT          MOCLDY    40  35  83 SW3       29.66R
MINOT AFB      CLOUDY    33  31  93 N9        29.66R
$$

NDZ018>021-031>035-040>046-220300-
SOUTHWEST NORTH DAKOTA

CITY           SKY/WX    TMP DP  RH WIND       PRES   REMARKS
BISMARCK       MOCLDY    43  36  76 NE8       29.69R
DICKINSON      FAIR      41  37  86 S5        29.58F
GARRISON         N/A     37  36  96 N6        29.67S
HETTINGER ARPT PTCLDY    42  38  85 N15       29.71R
$$

NDZ004>008-012>016-024-026-027-054-220300-
NORTHEAST NORTH DAKOTA

CITY           SKY/WX    TMP DP  RH WIND       PRES   REMARKS
GRAND FORKS    LGT RAIN  34  30  85 N5        29.69S VSB 1/4
GRND FRKS AFB  DRZL/FOG  32  32 100 N5        29.70R VSB 3/4
DEVILS LAKE    CLOUDY    35  32  88 S6        29.67S
$$

NDZ022-023-025-028>030-036>039-047>053-220300-
SOUTHEAST NORTH DAKOTA

CITY           SKY/WX    TMP DP  RH WIND       PRES   REMARKS
FARGO          CLOUDY    41  39  93 W3        29.68S
JAMESTOWN      CLOUDY    36  34  92 W6        29.69R
$$





USA.gov is the U.S. government's official web portal to all federal, state and local government web resources and services.